When you browse on this site, cookies collect data to enhance your experience and personalize the content and advertising you see.
Visit our Privacy Policy to learn more. By continuing to use the site, you agree to this use of cookies and data.
  • In Latvia
  • List of Countries
  • For 7 days
  • Water Temperature
  • Weather Map
  • Weather Widgets
  • user-avatar
    Login

    Hourly Weather Kuczyzna

    Today, 18 October, Friday

    Time Temperature Precipitation Wind Pressure Humidity
    00:00 +13°C° 0 mm 2 mps 747 mmHg 65%
    01:00 +12°C° 0 mm 2 mps 748 mmHg 68%
    02:00 +12°C° 0 mm 2 mps 747 mmHg 70%
    03:00 +12°C° 0 mm 2 mps 747 mmHg 71%
    04:00 +12°C° 0 mm 2 mps 747 mmHg 73%
    05:00 +12°C° 0 mm 2 mps 747 mmHg 72%
    06:00 +13°C° 0 mm 2 mps 747 mmHg 72%
    07:00 +13°C° 0 mm 2 mps 747 mmHg 71%
    08:00 +13°C° 0 mm 3 mps 747 mmHg 66%
    09:00 +16°C° 0 mm 3 mps 747 mmHg 61%
    10:00 +18°C° 0 mm 3 mps 747 mmHg 55%
    11:00 +19°C° 0 mm 3 mps 746 mmHg 53%
    12:00 +20°C° 0 mm 4 mps 746 mmHg 51%
    13:00 +21°C° 0 mm 4 mps 746 mmHg 49%
    14:00 +20°C° 0 mm 3 mps 745 mmHg 52%
    15:00 +19°C° 0 mm 3 mps 745 mmHg 55%
    16:00 +18°C° 0 mm 2 mps 745 mmHg 59%
    17:00 +17°C° 0 mm 2 mps 745 mmHg 61%
    18:00 +16°C° 0 mm 2 mps 745 mmHg 63%
    19:00 +15°C° 0 mm 2 mps 745 mmHg 66%
    20:00 +15°C° 0 mm 2 mps 745 mmHg 68%
    21:00 +15°C° 0 mm 2 mps 745 mmHg 70%
    22:00 +13°C° 0 mm 3 mps 745 mmHg 72%
    23:00 +13°C° 0 mm 3 mps 745 mmHg 76%

    Tomorrow, 19 October, Saturday

    Time Temperature Precipitation Wind Pressure Humidity
    00:00 +12°C° 0 mm 3 mps 745 mmHg 79%
    01:00 +12°C° 0 mm 3 mps 746 mmHg 82%
    02:00 +12°C° 0 mm 3 mps 746 mmHg 84%
    03:00 +11°C° 0 mm 3 mps 745 mmHg 87%
    04:00 +12°C° 0 mm 2 mps 745 mmHg 89%
    05:00 +12°C° 0 mm 2 mps 746 mmHg 89%
    06:00 +12°C° 0 mm 2 mps 746 mmHg 88%
    07:00 +12°C° 0 mm 2 mps 746 mmHg 88%
    08:00 +14°C° 0 mm 2 mps 746 mmHg 81%
    09:00 +15°C° 0 mm 2 mps 746 mmHg 74%
    10:00 +18°C° 0 mm 1 mps 746 mmHg 67%
    11:00 +19°C° 0 mm 1 mps 746 mmHg 64%
    12:00 +19°C° 0 mm 1 mps 745 mmHg 61%
    13:00 +20°C° 0 mm 1 mps 745 mmHg 58%
    14:00 +20°C° 0 mm 1 mps 745 mmHg 60%
    15:00 +19°C° 0 mm 1 mps 745 mmHg 63%
    16:00 +18°C° 0 mm 1 mps 745 mmHg 66%
    17:00 +18°C° 0 mm 1 mps 745 mmHg 68%
    18:00 +16°C° 0 mm 1 mps 745 mmHg 71%
    19:00 +15°C° 0 mm 1 mps 745 mmHg 73%
    20:00 +15°C° 0 mm 2 mps 745 mmHg 74%
    21:00 +14°C° 0 mm 2 mps 745 mmHg 76%
    22:00 +14°C° 0 mm 2 mps 745 mmHg 78%
    23:00 +14°C° 0 mm 2 mps 745 mmHg 77%

    Day after tomorrow, 20 October, Sunday

    Time Temperature Precipitation Wind Pressure Humidity
    00:00 +14°C° 0 mm 2 mps 745 mmHg 77%
    01:00 +14°C° 0 mm 2 mps 745 mmHg 76%
    02:00 +14°C° 0 mm 2 mps 745 mmHg 77%
    03:00 +14°C° 0 mm 2 mps 745 mmHg 79%
    04:00 +13°C° 0 mm 2 mps 745 mmHg 80%
    05:00 +13°C° 0 mm 2 mps 745 mmHg 81%
    06:00 +13°C° 0 mm 2 mps 746 mmHg 81%
    07:00 +13°C° 0 mm 2 mps 746 mmHg 82%
    08:00 +15°C° 0 mm 2 mps 746 mmHg 76%
    09:00 +17°C° 0 mm 3 mps 746 mmHg 71%
    10:00 +18°C° 0 mm 3 mps 746 mmHg 65%
    11:00 +19°C° 0 mm 3 mps 746 mmHg 61%
    12:00 +20°C° 0 mm 3 mps 746 mmHg 57%
    13:00 +21°C° 0 mm 2 mps 746 mmHg 52%
    14:00 +20°C° 0 mm 2 mps 746 mmHg 56%
    15:00 +21°C° 0 mm 1 mps 746 mmHg 59%
    16:00 +20°C° 0 mm 1 mps 746 mmHg 62%
    17:00 +19°C° 0 mm 1 mps 746 mmHg 66%
    18:00 +18°C° 0 mm 1 mps 746 mmHg 69%
    19:00 +16°C° 0 mm 2 mps 746 mmHg 72%
    20:00 +16°C° 0 mm 2 mps 746 mmHg 74%
    21:00 +15°C° 0 mm 2 mps 746 mmHg 76%
    22:00 +15°C° 0 mm 2 mps 746 mmHg 78%
    23:00 +15°C° 0 mm 2 mps 745 mmHg 79%

    21 October, Monday

    Time Temperature Precipitation Wind Pressure Humidity
    00:00 +15°C° 0 mm 2 mps 745 mmHg 81%
    01:00 +14°C° 0 mm 2 mps 745 mmHg 82%
    02:00 +14°C° 0 mm 2 mps 745 mmHg 82%
    03:00 +14°C° 0 mm 2 mps 745 mmHg 82%
    04:00 +14°C° 0 mm 2 mps 745 mmHg 82%
    05:00 +14°C° 0 mm 2 mps 745 mmHg 81%
    06:00 +14°C° 0 mm 2 mps 745 mmHg 81%
    07:00 +14°C° 0 mm 2 mps 745 mmHg 81%
    08:00 +16°C° 0 mm 3 mps 745 mmHg 74%
    09:00 +18°C° 0 mm 3 mps 746 mmHg 67%
    10:00 +19°C° 0 mm 4 mps 746 mmHg 61%
    11:00 +20°C° 0 mm 4 mps 746 mmHg 60%
    12:00 +20°C° 0 mm 4 mps 746 mmHg 60%
    13:00 +21°C° 0 mm 4 mps 747 mmHg 59%
    14:00 +20°C° 0 mm 4 mps 747 mmHg 63%
    15:00 +19°C° 0 mm 4 mps 747 mmHg 66%
    16:00 +18°C° 0 mm 3 mps 747 mmHg 70%
    17:00 +17°C° 0 mm 3 mps 748 mmHg 71%
    18:00 +17°C° 0 mm 3 mps 748 mmHg 72%
    19:00 +16°C° 0 mm 3 mps 749 mmHg 74%
    20:00 +14°C° 0 mm 3 mps 749 mmHg 72%
    21:00 +14°C° 0 mm 3 mps 749 mmHg 71%
    22:00 +14°C° 0 mm 3 mps 750 mmHg 69%
    23:00 +14°C° 0 mm 3 mps 750 mmHg 68%

    22 October, Tuesday

    Time Temperature Precipitation Wind Pressure Humidity
    00:00 +13°C° 0 mm 4 mps 750 mmHg 67%
    01:00 +13°C° 0 mm 4 mps 751 mmHg 67%
    02:00 +12°C° 0 mm 4 mps 751 mmHg 69%
    03:00 +12°C° 0 mm 4 mps 752 mmHg 71%
    04:00 +11°C° 0 mm 4 mps 752 mmHg 74%
    05:00 +11°C° 0 mm 4 mps 752 mmHg 77%
    06:00 +10°C° 0 mm 4 mps 753 mmHg 80%
    07:00 +10°C° 0 mm 4 mps 753 mmHg 84%
    08:00 +11°C° 0 mm 4 mps 753 mmHg 79%
    09:00 +12°C° 0 mm 4 mps 754 mmHg 75%
    10:00 +13°C° 0 mm 4 mps 754 mmHg 71%
    11:00 +13°C° 0 mm 4 mps 754 mmHg 69%
    12:00 +14°C° 0 mm 4 mps 754 mmHg 67%
    13:00 +14°C° 0 mm 4 mps 754 mmHg 66%
    14:00 +13°C° 0 mm 3 mps 754 mmHg 66%
    15:00 +14°C° 0 mm 2 mps 754 mmHg 67%
    16:00 +14°C° 0 mm 2 mps 754 mmHg 67%
    17:00 +14°C° 0 mm 2 mps 755 mmHg 67%
    18:00 +14°C° 0 mm 1 mps 755 mmHg 68%
    19:00 +13°C° 0 mm 1 mps 755 mmHg 68%
    20:00 +13°C° 0 mm 1 mps 755 mmHg 69%
    21:00 +13°C° 0 mm 1 mps 755 mmHg 70%
    22:00 +13°C° 0 mm 1 mps 755 mmHg 71%
    23:00 +12°C° 0 mm 1 mps 755 mmHg 74%

    23 October, Wednesday

    Time Temperature Precipitation Wind Pressure Humidity
    00:00 +11°C° 0 mm 1 mps 755 mmHg 76%
    01:00 +10°C° 0 mm 0 mps 755 mmHg 79%
    02:00 +9°C° 0 mm 0 mps 755 mmHg 81%
    03:00 +9°C° 0 mm 0 mps 755 mmHg 83%
    04:00 +8°C° 0 mm 0 mps 755 mmHg 85%
    05:00 +8°C° 0 mm 0 mps 755 mmHg 85%
    06:00 +9°C° 0 mm 1 mps 755 mmHg 85%
    07:00 +9°C° 0 mm 1 mps 755 mmHg 85%
    08:00 +11°C° 0 mm 1 mps 755 mmHg 77%
    09:00 +12°C° 0 mm 2 mps 754 mmHg 70%
    10:00 +14°C° 0 mm 2 mps 754 mmHg 62%
    11:00 +14°C° 0 mm 2 mps 754 mmHg 60%
    12:00 +14°C° 0 mm 3 mps 753 mmHg 57%
    13:00 +16°C° 0 mm 3 mps 753 mmHg 55%
    14:00 +14°C° 0 mm 3 mps 753 mmHg 59%
    15:00 +13°C° 0 mm 3 mps 752 mmHg 63%
    16:00 +12°C° 0 mm 3 mps 752 mmHg 67%
    17:00 +11°C° 0 mm 3 mps 752 mmHg 71%
    18:00 +11°C° 0 mm 3 mps 752 mmHg 74%
    19:00 +10°C° 0 mm 3 mps 752 mmHg 78%
    20:00 +9°C° 0 mm 3 mps 752 mmHg 80%
    21:00 +9°C° 0 mm 3 mps 752 mmHg 82%
    22:00 +9°C° 0 mm 3 mps 751 mmHg 85%
    23:00 +9°C° 0 mm 3 mps 751 mmHg 86%
    Show more